Flag for U.S.A. Weather past 2 weeks in Anderson, South Carolina, U.S.A.

Now
72 °F

Clear.


Feels Like: 69 °F
Forecast: 70 / 92 °F
Wind: No wind

Location: Anderson County Airport

Current Time: Aug 20, 2014 at 2:00:25 AM

Latest Report: Aug 20, 2014 at 12:56 AM


Visibility: 10 mi

Pressure: 29.90 "Hg

Humidity: 91%

Dew point: 69 °F

Location of AndersonLocation

Historic Weather in Anderson — Graph

°F

Anderson temperature yesterday

Maximum temperature yesterday: 89 °F (at 3:56 PM)
Minimum temperature yesterday: 71 °F (at 5:56 AM)
Average temperature yesterday: 79 °F

Past Weeks' High & Low Weather Summary

 TemperatureHumidityPressure
High91 °F (Aug 7, 3:56 PM)100% (Aug 9, 3:56 AM)30.14 "Hg (Aug 9, 3:56 AM)
Low63 °F (Aug 15, 5:56 AM)36% (Aug 15, 4:56 PM)29.78 "Hg (Aug 12, 5:56 PM)
Average76 °F75%29.97 "Hg
* Reported Aug 5 12:56 AM — Aug 20 12:56 AM, Anderson, Weather by CustomWeather, © 2014

Note: Actual official high and low records may vary slightly from our data, if they occured in-between our weather recording intervals... More about our weather records

Advertising

Anderson weather history for previous 24 hours

 ConditionsComfort  
Time TempWeatherWind HumidityBarometerVisibility
12:56 AM
Aug 20
72 °FClear.No wind91%29.90 "Hg10 mi
11:56 PM
Aug 19
75 °FClear.5 mph79%29.89 "Hg10 mi
10:56 PM76 °FClear.No wind82%29.88 "Hg10 mi
9:56 PM78 °FClear.3 mph76%29.88 "Hg10 mi
8:56 PM79 °FSunny.No wind74%29.85 "Hg10 mi
7:56 PM83 °FSunny.7 mph63%29.85 "Hg10 mi
6:56 PM87 °FSunny.12 mph55%29.84 "Hg10 mi
5:56 PM89 °FSunny.13 mph52%29.82 "Hg10 mi
4:56 PM89 °FSunny.12 mph52%29.81 "Hg10 mi
3:56 PM89 °FPassing clouds.10 mph52%29.82 "Hg10 mi
2:56 PM88 °FScattered clouds.12 mph52%29.84 "Hg10 mi
1:56 PM87 °FPassing clouds.8 mph57%29.86 "Hg10 mi
12:56 PM85 °FPassing clouds.14 mph63%29.88 "Hg10 mi
11:56 AM82 °FPassing clouds.8 mph72%29.88 "Hg10 mi
11:03 AM76 °FPartly sunny.10 mph85%29.93 "Hg10 mi
10:56 AM76 °FPartly sunny.10 mph85%29.89 "Hg10 mi
9:56 AM73 °FMostly cloudy.6 mph94%29.88 "Hg10 mi
8:56 AM72 °FRain. Fog.8 mph93%29.88 "Hg4 mi
7:56 AM72 °FSunny.9 mph91%29.86 "Hg10 mi
6:56 AM71 °FClear.6 mph90%29.85 "Hg10 mi
5:56 AM71 °FClear.6 mph93%29.84 "Hg10 mi
4:56 AM72 °FClear.7 mph91%29.84 "Hg10 mi
3:56 AM72 °FClear.9 mph91%29.83 "Hg10 mi
2:56 AM73 °FClear.9 mph84%29.85 "Hg10 mi
Weather by CustomWeather, © 2014

See weather overviewHow to use our weather pages